Lancaster, SC

2:52 AM EDT on October 18, 2017 (GMT -0400)
Lancaster County-McWhirter

Weather History for KLKR - March, 2012

Change the Weather History Date:

Monday, March 12, 2012

  Actual Average (KUZA) Record (KUZA)
Temperature  
Mean Temperature 55 °F -  
Max Temperature 71 °F 66 °F 85 °F (1990)
Min Temperature 39 °F 42 °F 22 °F (1969)
Degree Days  
Heating Degree Days 10    
Growing Degree Days 5 (Base 50)    
Moisture  
Dew Point 47 °F    
Average Humidity 77    
Maximum Humidity 100    
Minimum Humidity 38    
Precipitation  
Precipitation 0.00 in - - ()
Sea Level Pressure  
Sea Level Pressure 30.37 in    
Wind  
Wind Speed 1 mph (South)    
Max Wind Speed 7 mph    
Max Gust Speed -    
Visibility 10 miles    
Events      
Averages and records for this station are not official NWS values.
T = Trace of Precipitation, MM = Missing Value Source: NWS Daily Summary

Daily Weather History Graph

Daily Weather History Graph

Search for Another Location

Airport or City:

Trip Planner

Search our weather history database for the weather conditions in past years. The results will help you decide how hot, cold, wet, or windy it might be!

Date:

Astronomy

Mar. 12, 2012 Rise Set
Actual Time 7:37 AM EDT 7:29 PM EDT
Civil Twilight 7:12 AM EDT 7:54 PM EDT
Nautical Twilight 6:43 AM EDT 8:23 PM EDT
Astronomical Twilight 6:13 AM EDT 8:52 PM EDT
Moon No Moon Rise 10:11 AM EDT (3/12)
Length of Visible Light 12h 41m
Length of Day
11h 51m
Waning Gibbous, 76% of the Moon is Illuminated
Mar 12
Waning Gibbous
Mar 14
Last Quarter
Mar 22
New
Mar 30
First Quarter
Apr 6
Full

Hourly Weather History & Observations

Time (EDT) Temp. Dew Point Humidity Pressure Visibility Wind Dir Wind Speed Gust Speed Precip Events Conditions
12:15 AM 42.8 °F 42.8 °F 100% 30.45 in 10.0 mi Calm Calm - N/A   Clear
12:35 AM 41.0 °F 41.0 °F 100% 30.45 in 10.0 mi Calm Calm - N/A   Clear
12:55 AM 41.0 °F 41.0 °F 100% 30.44 in 10.0 mi Calm Calm - N/A   Clear
1:15 AM 41.0 °F 41.0 °F 100% 30.44 in 10.0 mi Calm Calm - N/A   Clear
1:35 AM 41.0 °F 41.0 °F 100% 30.43 in 10.0 mi Calm Calm - N/A   Clear
2:15 AM 42.8 °F 42.8 °F 100% 30.43 in 10.0 mi Calm Calm - N/A   Clear
2:35 AM 42.8 °F 42.8 °F 100% 30.43 in 10.0 mi Calm Calm - N/A   Clear
2:55 AM 42.8 °F 42.8 °F 100% 30.43 in 10.0 mi Calm Calm - N/A   Clear
3:35 AM 41.0 °F 41.0 °F 100% 30.42 in 10.0 mi Calm Calm - N/A   Clear
3:55 AM 41.0 °F 41.0 °F 100% 30.42 in 10.0 mi Calm Calm - N/A   Clear
4:15 AM 41.0 °F 41.0 °F 100% 30.42 in 9.0 mi Calm Calm - N/A   Clear
4:35 AM 41.0 °F 41.0 °F 100% 30.41 in 3.0 mi Calm Calm - N/A   Clear
4:55 AM 39.2 °F 39.2 °F 100% 30.42 in 7.0 mi Calm Calm - N/A   Clear
5:15 AM 39.2 °F 39.2 °F 100% 30.41 in 7.0 mi Calm Calm - N/A   Clear
5:35 AM 39.2 °F 39.2 °F 100% 30.41 in 9.0 mi Calm Calm - N/A   Clear
5:55 AM 39.2 °F 39.2 °F 100% 30.39 in 9.0 mi Calm Calm - N/A   Clear
6:15 AM 41.0 °F 41.0 °F 100% 30.39 in 10.0 mi Calm Calm - N/A   Mostly Cloudy
6:35 AM 41.0 °F 41.0 °F 100% 30.39 in 10.0 mi Calm Calm - N/A   Partly Cloudy
6:55 AM 41.0 °F 41.0 °F 100% 30.40 in 9.0 mi Calm Calm - N/A   Partly Cloudy
7:35 AM 39.2 °F 39.2 °F 100% 30.40 in 9.0 mi Calm Calm - N/A   Clear
7:55 AM 39.2 °F 39.2 °F 100% 30.41 in 7.0 mi Calm Calm - N/A   Clear
8:15 AM 39.2 °F 39.2 °F 100% 30.41 in 7.0 mi Calm Calm - N/A   Clear
9:15 AM 48.2 °F 48.2 °F 100% 30.42 in 10.0 mi Calm Calm - N/A   Mostly Cloudy
9:35 AM 51.8 °F 50.0 °F 94% 30.42 in 10.0 mi Calm Calm - N/A   Scattered Clouds
9:55 AM 55.4 °F 51.8 °F 88% 30.42 in 10.0 mi Calm Calm - N/A   Mostly Cloudy
10:15 AM 59.0 °F 53.6 °F 82% 30.42 in 10.0 mi Calm Calm - N/A   Scattered Clouds
10:35 AM 60.8 °F 53.6 °F 77% 30.41 in 10.0 mi SSE 3.5 mph - N/A   Scattered Clouds
10:55 AM 60.8 °F 53.6 °F 77% 30.42 in 10.0 mi Calm Calm - N/A   Scattered Clouds
11:15 AM 62.6 °F 53.6 °F 72% 30.42 in 10.0 mi Calm Calm - N/A   Scattered Clouds
11:55 AM 66.2 °F 50.0 °F 56% 30.40 in 10.0 mi Calm Calm - N/A   Clear
12:15 PM 66.2 °F 50.0 °F 56% 30.40 in 10.0 mi SE 5.8 mph - N/A   Clear
12:35 PM 68.0 °F 50.0 °F 52% 30.40 in 10.0 mi SW 4.6 mph - N/A   Clear
12:55 PM 68.0 °F 50.0 °F 52% 30.38 in 10.0 mi SSE 5.8 mph - N/A   Clear
1:15 PM 68.0 °F 48.2 °F 49% 30.38 in 10.0 mi SE 6.9 mph - N/A   Partly Cloudy
1:35 PM 68.0 °F 48.2 °F 49% 30.37 in 10.0 mi SE 5.8 mph - N/A   Scattered Clouds
1:55 PM 68.0 °F 48.2 °F 49% 30.36 in 10.0 mi ESE 6.9 mph - N/A   Scattered Clouds
2:15 PM 71.6 °F 48.2 °F 43% 30.35 in 10.0 mi SW 4.6 mph - N/A   Scattered Clouds
2:35 PM 71.6 °F 48.2 °F 43% 30.34 in 10.0 mi Calm Calm - N/A   Scattered Clouds
2:55 PM 71.6 °F 48.2 °F 43% 30.33 in 10.0 mi SE 3.5 mph - N/A   Partly Cloudy
3:15 PM 71.6 °F 46.4 °F 41% 30.32 in 10.0 mi Calm Calm - N/A   Partly Cloudy
3:35 PM 71.6 °F 44.6 °F 38% 30.31 in 10.0 mi Calm Calm - N/A   Partly Cloudy
4:15 PM 68.0 °F 44.6 °F 43% 30.30 in 10.0 mi SSW 4.6 mph - N/A   Partly Cloudy
4:35 PM 69.8 °F 44.6 °F 40% 30.29 in 10.0 mi South 3.5 mph - N/A   Partly Cloudy
4:55 PM 69.8 °F 44.6 °F 40% 30.30 in 10.0 mi Calm Calm - N/A   Partly Cloudy
5:35 PM 69.8 °F 42.8 °F 38% 30.29 in 10.0 mi SSW 3.5 mph - N/A   Scattered Clouds
5:55 PM 68.0 °F 44.6 °F 43% 30.29 in 10.0 mi Calm Calm - N/A   Partly Cloudy
6:15 PM 68.0 °F 46.4 °F 46% 30.29 in 10.0 mi South 4.6 mph - N/A   Partly Cloudy
6:35 PM 68.0 °F 48.2 °F 49% 30.29 in 10.0 mi Calm Calm - N/A   Scattered Clouds
6:55 PM 66.2 °F 48.2 °F 52% 30.28 in 10.0 mi Calm Calm - N/A   Scattered Clouds
7:15 PM 64.4 °F 50.0 °F 59% 30.28 in 10.0 mi Calm Calm - N/A   Scattered Clouds
8:15 PM 62.6 °F 53.6 °F 72% 30.28 in 10.0 mi Calm Calm - N/A   Scattered Clouds
8:35 PM 60.8 °F 53.6 °F 77% 30.28 in 10.0 mi Calm Calm - N/A   Mostly Cloudy
8:55 PM 59.0 °F 55.4 °F 88% 30.28 in 10.0 mi Calm Calm - N/A   Mostly Cloudy
9:15 PM 59.0 °F 55.4 °F 88% 30.28 in 10.0 mi Calm Calm - N/A   Overcast
9:35 PM 60.8 °F 55.4 °F 82% 30.28 in 10.0 mi Calm Calm - N/A   Overcast
9:55 PM 59.0 °F 55.4 °F 88% 30.28 in 10.0 mi Calm Calm - N/A   Overcast
10:15 PM 59.0 °F 55.4 °F 88% 30.28 in 10.0 mi Calm Calm - N/A   Overcast
10:35 PM 59.0 °F 55.4 °F 88% 30.28 in 10.0 mi Calm Calm - N/A   Overcast
10:55 PM 59.0 °F 55.4 °F 88% 30.28 in 10.0 mi Calm Calm - N/A   Overcast
11:15 PM 59.0 °F 55.4 °F 88% 30.27 in 10.0 mi Calm Calm - N/A   Mostly Cloudy
11:35 PM 59.0 °F 55.4 °F 88% 30.28 in 10.0 mi Calm Calm - N/A   Overcast
11:55 PM 59.0 °F 57.2 °F 94% 30.27 in 10.0 mi Calm Calm - N/A   Overcast